Location: Battersea Observatory
(44.4318°N, 76.3841°W)
Time: 23:23:25
(UTC-04:00)

Vanguard 2 - Pass Details

Date: 21 January 2022
Orbit: 552 x 2935 km, 32.9° (Epoch: 19 May)

Event Time Altitude Azimuth Distance (km) Brightness Sun altitude
Rises 03:13:35 0° 275° (W) 6,352 - -46.0°
Reaches altitude 10° 03:18:10 10° 267° (W) 5,543 - -45.2°
Maximum altitude 03:32:28 33° 212° (SSW) 4,116 - -42.8°
Exits shadow 03:37:07 30° 188° (S) 4,245 11.0 -42.0°
Drops below altitude 10° 03:46:18 10° 156° (SSE) 5,321 11.9 -40.4°
Sets 03:50:38 0° 148° (SSE) 6,073 12.3 -39.6°
